Regional Weather Roundup
Issued by NWS

Home | Current Version | Previous Version | Graphics & Text | Print | Product List | Glossary On
Versions: 1 2 3 4 5 6 7 8 9 10 11 12 13 14 15 16 17 18 19 20 21 22 23 24 25 26 27
000
ASUS45 KCYS 021610
RWRWY

WYOMING REGIONAL WEATHER ROUNDUP
NATIONAL WEATHER SERVICE CHEYENNE WY
900 AM MST FRI DEC 02 2016

NOTE:  "FAIR" INDICATES FEW OR NO CLOUDS BELOW 12,000 FEET
WITH NO SIGNIFICANT WEATHER AND/OR OBSTRUCTIONS TO VISIBILITY.

WYZ001-021700-
YELLOWSTONE NATIONAL PARK

CITY           SKY/WX    TMP DP  RH WIND       PRES   REMARKS
LK YELLOWSTONE   N/A     13  11  92 CALM      30.14R
W YELLOWSTONE  NOT AVBL

$$
WYZ002>013-054>058-071-098>099-021700-
NORTHERN WYOMING

CITY           SKY/WX    TMP DP  RH WIND       PRES   REMARKS
JACKSON        FAIR       9   7  92 CALM      30.19R
CODY           NOT AVBL
GREYBULL       CLOUDY    28  21  75 CALM      30.21R
WORLAND        CLOUDY    28  24  85 CALM      30.20R
SHERIDAN       FAIR      26  21  81 S5        30.19R WCI  20
BUFFALO        CLOUDY    32  17  54 SW3       30.17R
GILLETTE       CLOUDY    29  24  82 W9        30.18R WCI  20
HULETT         CLOUDY    27  23  86 S6        30.18R WCI  20
NEWCASTLE      FAIR      21  19  93 N6        30.19R WCI  14

$$
WYZ014>020-022>026-101>103-021700-
CENTRAL WYOMING

CITY           SKY/WX    TMP DP  RH WIND       PRES   REMARKS
BIG PINEY      FAIR      10   7  87 CALM      30.16R
PINEDALE       FAIR       9   3  78 CALM      30.16R
DUBOIS         FAIR      10   1  67 NW12      30.13R WCI  -4
LANDER         CLOUDY    22  18  85 NE5       30.17R WCI  16
RIVERTON       FAIR      21  11  65 NW9       30.18R WCI  11
CASPER         CLOUDY    25  23  92 CALM      30.17R
DOUGLAS        CLOUDY    28  25  88 NW5       30.18R WCI  23

$$
WYZ021-027>030-104>119-021700-
SOUTHERN WYOMING

CITY           SKY/WX    TMP DP  RH WIND       PRES   REMARKS
EVANSTON       FOG       14  10  84 NE5       30.14R VSB<1/4 WCI   6
FORT BRIDGER   FAIR      14  14 100 W6        30.17R WCI   5
ROCK SPRINGS   PTSUNNY   13  11  92 W7        30.15R WCI   3
DIXON          FAIR      11   6  80 E5        30.16S WCI   3
RAWLINS        CLOUDY    17  13  84 CALM      30.14R
SARATOGA       CLOUDY    10   9  92 CALM      30.14R
LARAMIE        CLOUDY    11   9  92 CALM      30.11R
CHEYENNE       CLOUDY    26  15  63 NW3       30.14R
TORRINGTON     FAIR      23  17  78 W3        30.19R
PINE BLUFFS    FAIR      25  19  80 CALM      30.18R

$$




USA.gov is the U.S. government's official web portal to all federal, state and local government web resources and services.